211,2014-05-12 09:03:54,1399885434,60.75928,-3.08218,9,4,2011-00-00 08:05:13,,9.878,28,10.8,0,0,60.7219,-3.077,3,3
28,2014-05-04 18:05:24,1399226724,59.76652,-5.70351,5,1,2014-05-04 18:05:13,1399226713,11.34,8,11,0,0,59.7912,-5.7007,3,5
29,2014-05-04 19:05:13,1399230313,59.73346,-4.486,91,1,2014-05-04 19:05:34,1399230334,9.921,8,11,0,0,59.7859,-5.688,3,5
30,2014-05-04 20:05:11,1399233911,59.7435,-8.64337,185,1,2014-05-04 20:05:11,1399233911,9.878,8,11.1,0,0,59.7809,-5.6743,3,5
31,2014-05-04 21:05:20,1399237520,59.76958,-5.63268,2,1,2014-05-04 21:05:21,1399237521,9.878,28,11.1,0,0,59.7773,-5.6586,3,5
32,2014-05-04 22:05:30,1399241130,59.65939,-8.6922,185,1,2014-05-04 22:05:10,1399241110,9.878,28,11.1,0,0,59.7756,-5.6411,22,4
33,2014-05-04 23:05:45,1399244745,59.73872,-5.6257,5,2,2014-05-04 23:05:15,1399244715,9.835,28,11.1,0,0,59.7748,-5.6219,37,5
34,2014-05-05 00:06:21,1399248381,59.63735,-7.53841,132,0,2014-05-05 00:05:45,1399248345,9.835,28,11,0,0,59.7765,-5.6053,64,3
35,2014-05-05 01:05:09,1399251909,59.74174,-5.55494,5,1,2014-05-05 01:05:33,1399251933,9.792,34,11.1,0,0,59.779,-5.5885,3,5
36,2014-05-05 02:05:17,1399255517,59.81618,-4.92344,77,0,2014-05-05 02:05:00,1399255500,9.792,34,11,0,0,59.7823,-5.5757,3,4
37,2014-05-05 03:05:23,1399259123,59.80046,-5.63967,3,0,2014-05-05 03:05:41,1399259141,9.792,34,11.1,0,0,59.7854,-5.5678,3,5
38,2014-05-05 04:05:11,1399262711,59.83388,-4.42605,97,1,2014-05-05 04:05:39,1399262739,9.749,34,11,0,0,59.7896,-5.5605,3,5
39,2014-05-05 05:05:17,1399266317,59.80349,-5.56874,5,0,2014-05-05 05:05:45,1399266345,9.749,30,11,0,0,59.7919,-5.5572,3,3
40,2014-05-05 06:05:10,1399269910,59.82154,-5.56874,14,1,2014-05-05 06:05:14,1399269914,9.749,30,11.1,0,0,59.794,-5.5558,3,5
41,2014-05-05 07:05:22,1399273522,59.77559,-5.49096,1,1,2014-05-05 07:05:31,1399273531,9.792,30,11,0,0,59.7961,-5.5535,3,3
42,2014-05-05 08:05:24,1399277124,59.80046,-5.63967,2,0,2014-05-05 08:05:09,1399277109,9.792,30,11.1,0,0,59.798,-5.5481,3,5
43,2014-05-05 09:05:19,1399280719,59.85244,-5.57566,8,2,2014-05-05 09:05:30,1399280730,9.792,32,11,0,0,59.7997,-5.5392,3,5
44,2014-05-05 10:05:13,1399284313,59.82454,-5.49778,8,0,2014-05-05 10:05:01,1399284301,9.835,32,11,0,0,59.802,-5.5273,3,4
45,2014-05-05 11:05:11,1399287911,59.77559,-5.49096,4,-1,2014-05-05 11:05:38,1399287938,9.835,32,11.1,0,0,59.8042,-5.5116,3,5
46,2014-05-05 12:05:53,1399291553,59.80944,-5.42681,3,2,2014-05-05 12:05:45,1399291545,9.835,32,11,0,0,59.8075,-5.4944,45,3
47,2014-05-05 13:05:11,1399295111,59.82749,-5.42681,5,2,2014-05-05 13:05:44,1399295144,9.835,34,11,0,0,59.8105,-5.4787,3,5
48,2014-05-05 14:05:09,1399298709,59.77559,-5.49096,4,2,2014-05-05 14:05:02,1399298702,9.835,34,11,0,0,59.8139,-5.4662,3,5
49,2014-05-05 15:05:38,1399302338,59.9876,-8.41384,192,1,2014-05-05 15:05:19,1399302319,9.835,34,11,0,0,59.8171,-5.457,20,3
50,2014-05-05 16:05:20,1399305920,59.82749,-5.42681,2,1,2014-05-05 16:05:40,1399305940,9.835,34,11,0,0,59.8201,-5.452,3,5
51,2014-05-05 17:05:17,1399309517,59.94742,-7.75549,147,1,2014-05-05 17:05:46,1399309546,9.835,28,11,0,0,59.8236,-5.4501,3,5
52,2014-05-05 18:05:11,1399313111,59.82454,-5.49778,1,1,2014-05-05 18:05:14,1399313114,9.835,28,11,0,0,59.8266,-5.4503,3,5
53,2014-05-05 19:05:11,1399316711,59.92194,-7.0984,133,1,2014-05-05 19:05:09,1399316709,9.835,28,11,0,0,59.83,-5.4499,3,4
54,2014-05-05 20:05:08,1399320308,59.69778,-11.24018,332,3,2014-05-05 20:05:16,1399320316,9.835,28,11,0,0,59.8332,-5.4445,3,1
55,2014-05-05 21:05:19,1399323919,59.80944,-5.42681,4,2,2014-05-05 21:05:38,1399323938,9.792,31,11,0,0,59.8367,-5.4366,3,5
56,2014-05-05 22:05:17,1399327517,59.82749,-5.42681,12,1,2014-05-05 22:05:10,1399327510,9.792,31,11,0,0,59.8414,-5.4259,3,5
57,2014-05-05 23:05:36,1399331136,59.82749,-5.42681,4,1,2014-05-05 23:05:30,1399331130,9.792,31,11,0,0,59.8474,-5.4099,24,5
58,2014-05-06 00:05:13,1399334713,59.82749,-5.42681,3,6,2014-05-06 00:05:15,1399334715,9.792,31,11,0,0,59.8539,-5.3903,3,5
59,2014-05-06 01:06:17,1399338377,59.86132,-5.36249,2,1,2014-05-06 01:05:48,1399338348,9.792,32,11,0,0,59.8606,-5.3708,69,5
60,2014-05-06 02:05:10,1399341910,59.7896,-7.14269,119,1,2014-05-06 02:05:43,1399341943,9.792,32,10.9,0,0,59.8679,-5.3502,3,5
61,2014-05-06 03:05:13,1399345513,59.86132,-5.36249,2,1,2014-05-06 03:05:17,1399345517,9.792,32,10.9,0,0,59.8745,-5.3332,3,5
62,2014-05-06 04:05:56,1399349156,59.88222,-5.2914,3,1,2014-05-06 04:05:45,1399349145,9.749,32,10.9,0,0,59.8817,-5.3185,42,1
63,2014-05-06 05:05:08,1399352708,59.88506,-5.22029,1,1,2014-05-06 05:05:08,1399352708,9.792,31,10.9,0,0,59.8872,-5.3053,3,5
64,2014-05-06 06:05:25,1399356325,59.95635,-4.08562,94,0,2014-05-06 06:05:34,1399356334,9.792,31,10.9,0,0,59.892,-5.2936,18,5
65,2014-05-06 07:05:20,1399359920,59.8642,-5.2914,6,1,2014-05-06 07:05:15,1399359915,9.792,31,11,0,0,59.8956,-5.2816,3,4
66,2014-05-06 08:05:16,1399363516,59.91314,-5.29799,8,186,2014-05-06 08:05:15,1399363515,9.792,31,11,0,0,59.8976,-5.2695,3,5
67,2014-05-06 09:05:29,1399367129,59.91314,-5.29799,3,187,2014-05-06 09:05:39,1399367139,9.792,27,10.9,0,0,59.9,-5.2583,22,5
68,2014-05-06 10:05:11,1399370711,59.8642,-5.2914,6,189,2014-05-06 10:05:14,1399370714,9.835,27,10.9,0,0,59.9038,-5.2482,3,1
69,2014-05-06 11:05:10,1399374310,59.9188,-5.15558,3,189,2014-05-06 11:05:10,1399374310,9.835,27,10.9,0,0,59.9082,-5.2348,3,5
70,2014-05-06 12:05:12,1399377912,59.91314,-5.29799,2,190,2014-05-06 12:05:43,1399377943,9.964,27,10.9,0,0,59.911,-5.2178,3,5
71,2014-05-06 13:05:13,1399381513,59.91599,-5.2268,2,2,2014-05-06 13:05:07,1399381507,9.878,36,11,0,0,59.9159,-5.201,3,5
72,2014-05-06 14:05:19,1399385119,59.9188,-5.15558,2,0,2014-05-06 14:05:37,1399385137,9.921,36,10.9,0,0,59.9236,-5.1823,3,5
73,2014-05-06 15:05:10,1399388710,60.25131,-10.10433,284,1,2014-05-06 15:05:23,1399388723,9.964,36,10.9,0,0,59.9302,-5.1651,3,3
74,2014-05-06 16:05:21,1399392321,59.9188,-5.15558,2,3,2014-05-06 16:05:12,1399392312,9.964,36,10.9,0,0,59.9375,-5.1497,3,5
75,2014-05-06 17:05:26,1399395926,59.94975,-5.16202,3,4,2014-05-06 17:05:10,1399395910,9.921,31,10.9,0,0,59.9449,-5.1359,18,5
76,2014-05-06 18:05:22,1399399522,59.92157,-5.08436,2,1,2014-05-06 18:05:45,1399399545,9.964,31,10.9,0,0,59.9521,-5.1247,3,5
77,2014-05-06 19:05:14,1399403114,60.03832,-6.76014,114,1,2014-05-06 19:05:02,1399403102,9.964,31,10.9,0,0,59.9588,-5.1143,3,5
78,2014-05-06 20:05:18,1399406718,59.9705,-5.0907,3,2,2014-05-06 20:05:44,1399406744,10.007,31,10.9,0,0,59.9647,-5.1012,3,5
79,2014-05-06 21:05:23,1399410323,59.92157,-5.08436,4,2,2014-05-06 21:05:48,1399410348,10.007,29,10.9,0,0,59.9698,-5.0871,3,5
80,2014-05-06 22:05:09,1399413909,59.95253,-5.0907,2,2,2014-05-06 22:05:12,1399413912,9.964,29,10.9,0,0,59.9754,-5.0721,3,5
81,2014-05-06 23:05:20,1399417520,59.97324,-5.01937,2,4,2014-05-06 23:05:13,1399417513,10.007,29,10.9,0,0,59.982,-5.0527,3,5
82,2014-05-07 00:05:13,1399421113,59.97594,-4.94802,3,2,2014-05-07 00:05:08,1399421108,10.007,29,10.9,0,0,59.9873,-5.0285,3,3
83,2014-05-07 01:05:09,1399424709,59.9705,-5.0907,1,2,2014-05-07 01:05:14,1399424714,9.964,29,10.9,0,0,59.9928,-5.0063,3,5
84,2014-05-07 02:05:11,1399428311,60.00691,-4.95421,3,1,2014-05-07 02:05:02,1399428302,9.921,29,10.9,0,0,59.9985,-4.9844,3,3
85,2014-05-07 03:05:13,1399431913,60.00958,-4.88276,2,8,2014-05-07 03:05:02,1399431902,9.878,29,10.9,0,0,60.0049,-4.9638,3,5
86,2014-05-07 04:05:09,1399435509,59.93699,-6.81435,125,1,2014-05-07 04:05:11,1399435511,9.878,29,10.9,0,0,60.012,-4.9441,3,5
87,2014-05-07 05:05:12,1399439112,60.00691,-4.95421,2,5,2014-05-07 05:05:14,1399439114,9.835,26,10.9,0,0,60.0174,-4.924,3,5
88,2014-05-07 06:05:09,1399442709,60.02752,-4.88276,4,2,2014-05-07 06:05:44,1399442744,9.878,26,10.9,0,0,60.0162,-4.9063,3,5
89,2014-05-07 07:05:11,1399446311,60.02752,-4.88276,3,2,2014-05-07 07:05:44,1399446344,9.964,26,10.9,0,0,60.0155,-4.8993,3,5
90,2014-05-07 08:05:09,1399449909,60.00958,-4.88276,3,2,2014-05-07 08:05:14,1399449914,9.964,26,10.9,0,0,60.0193,-4.8984,3,5
91,2014-05-07 09:05:15,1399453515,60.03015,-4.81129,2,2,2014-05-07 09:05:45,1399453545,9.921,27,10.9,0,0,60.0252,-4.8938,3,5
92,2014-05-07 10:05:10,1399457110,60.00958,-4.88276,4,1,2014-05-07 10:05:31,1399457131,9.964,27,10.9,0,0,60.0326,-4.8879,3,4
93,2014-05-07 11:05:12,1399460712,60.05851,-4.88887,2,2,2014-05-07 11:05:44,1399460744,9.964,27,10.9,0,0,60.0404,-4.8767,3,5
94,2014-05-07 12:05:18,1399464318,60.03015,-4.81129,2,2,2014-05-07 12:05:14,1399464314,10.007,27,10.9,0,0,60.0489,-4.8612,3,5
95,2014-05-07 13:06:10,1399467970,60.08951,-4.895,4,2,2014-05-07 13:05:45,1399467945,10.007,29,10.9,0,0,60.0579,-4.8421,53,5
96,2014-05-07 14:05:08,1399471508,60.05851,-4.88887,3,2,2014-05-07 14:05:16,1399471516,9.964,29,10.9,0,0,60.067,-4.8217,3,5
97,2014-05-07 15:05:23,1399475123,60.06114,-4.81732,3,2,2014-05-07 15:05:14,1399475114,9.964,29,10.9,0,0,60.0773,-4.801,3,4
98,2014-05-07 16:05:11,1399478711,60.06373,-4.74575,3,2,2014-05-07 16:05:07,1399478707,9.921,29,10.9,0,0,60.0875,-4.7812,3,5
99,2014-05-07 17:05:12,1399482312,60.41401,-9.48621,275,1,2014-05-07 17:05:13,1399482313,9.921,28,10.9,0,0,60.0984,-4.7631,3,5
100,2014-05-07 18:05:27,1399485927,60.09475,-4.7517,6,2,2014-05-07 18:05:06,1399485906,9.921,28,10.9,0,0,60.1092,-4.7471,19,5
101,2014-05-07 19:05:10,1399489510,60.35792,-8.66345,229,2,2014-05-07 19:05:44,1399489544,9.921,28,10.9,0,0,60.12,-4.7321,3,5
102,2014-05-07 20:06:00,1399493160,60.17471,-4.76364,12,2,2014-05-07 20:05:15,1399493115,9.921,28,10.9,0,0,60.1299,-4.717,38,5
103,2014-05-07 21:05:12,1399496712,60.1152,-4.68002,2,2,2014-05-07 21:05:07,1399496707,9.921,33,10.9,0,0,60.1399,-4.7049,3,5
104,2014-05-07 22:05:11,1399500311,60.14875,-4.61412,2,1,2014-05-07 22:05:14,1399500314,9.921,33,10.9,0,0,60.1492,-4.6941,3,3
105,2014-05-07 23:05:41,1399503941,60.1152,-4.68002,5,2,2014-05-07 23:05:25,1399503925,9.921,33,10.9,0,0,60.1599,-4.683,23,4
106,2014-05-08 00:05:23,1399507523,60.14623,-4.6859,3,3,2014-05-08 00:05:45,1399507545,9.921,33,10.9,0,0,60.1716,-4.6676,3,5
107,2014-05-08 01:05:11,1399511111,60.14875,-4.61412,7,2,2014-05-08 01:05:15,1399511115,9.921,29,10.9,0,0,60.1843,-4.6486,3,5
108,2014-05-08 02:05:09,1399514709,60.20014,-4.54804,4,2,2014-05-08 02:05:03,1399514703,9.921,29,10.9,0,0,60.1981,-4.6263,3,5
109,2014-05-08 03:05:11,1399518311,60.20014,-4.54804,3,2,2014-05-08 03:05:05,1399518305,9.921,29,10.9,0,0,60.2134,-4.6023,3,5
110,2014-05-08 04:05:11,1399521911,60.06605,-8.65872,236,3,2014-05-08 04:05:33,1399521933,9.964,29,10.9,0,0,60.2289,-4.5748,3,5
111,2014-05-08 05:05:41,1399525541,60.2801,-4.55951,5,2,2014-05-08 05:05:09,1399525509,9.964,30,10.9,0,0,60.2433,-4.5467,21,5
112,2014-05-08 06:05:20,1399529120,60.26956,-5.64588,122,2,2014-05-08 06:05:14,1399529114,9.964,30,10.9,0,0,60.2578,-4.5173,3,5
113,2014-05-08 07:05:12,1399532712,60.28498,-4.41534,2,2,2014-05-08 07:05:10,1399532710,9.964,30,10.9,0,0,60.2701,-4.4895,3,5
114,2014-05-08 08:05:13,1399536313,60.19569,-2.3079,136,1,2014-05-08 08:05:44,1399536344,10.007,30,10.9,0,0,60.2812,-4.4639,3,5
115,2014-05-08 09:05:21,1399539921,60.31608,-4.42092,7,2,2014-05-08 09:05:17,1399539917,10.007,29,10.9,0,0,60.2917,-4.4421,3,5
116,2014-05-08 10:05:22,1399543522,60.31056,-2.09966,151,1,2014-05-08 10:05:13,1399543513,10.007,29,10.9,0,0,60.3016,-4.4226,3,5
117,2014-05-08 11:05:28,1399547128,60.28736,-4.34324,3,1,2014-05-08 11:05:02,1399547102,10.007,29,10.9,0,0,60.3125,-4.4023,20,5
118,2014-05-08 12:05:14,1399550714,60.31608,-4.42092,5,2,2014-05-08 12:05:56,1399550756,10.05,29,10.9,0,0,60.3232,-4.3784,3,5
119,2014-05-08 13:05:09,1399554309,60.33624,-4.34872,4,3,2014-05-08 13:05:11,1399554311,10.136,28,10.9,0,0,60.3337,-4.3516,3,5
120,2014-05-08 14:05:10,1399557910,60.36735,-4.35422,4,2,2014-05-08 14:05:15,1399557915,10.265,28,10.9,0,0,60.3461,-4.3175,3,5
121,2014-05-08 15:05:21,1399561521,60.33858,-4.27652,8,2,2014-05-08 15:05:14,1399561514,10.351,28,10.9,0,0,60.3584,-4.2784,3,2
122,2014-05-08 16:05:11,1399565111,60.37428,-4.13729,2,2,2014-05-08 16:05:15,1399565115,10.308,28,10.9,0,0,60.3707,-4.2357,3,5
123,2014-05-08 17:05:09,1399568709,60.37428,-4.13729,2,2,2014-05-08 17:05:11,1399568711,10.437,28,10.9,0,0,60.3818,-4.1914,3,2
124,2014-05-08 18:05:13,1399572313,60.34089,-4.20429,2,3,2014-05-08 18:05:43,1399572343,10.351,28,10.9,0,0,60.393,-4.1449,3,5
125,2014-05-08 19:05:11,1399575911,60.42315,-4.14252,12,2,2014-05-08 19:05:08,1399575908,10.351,28,10.9,0,0,60.403,-4.1012,3,5
126,2014-05-08 20:05:26,1399579526,60.42758,-3.99765,1,1,2014-05-08 20:05:37,1399579537,10.308,28,10.9,0,0,60.4118,-4.0593,18,1
127,2014-05-08 21:05:11,1399583111,60.78582,1.17664,295,2,2014-05-08 21:05:44,1399583144,10.179,31,10.9,0,0,60.4196,-4.0183,3,5
128,2014-05-08 22:05:30,1399586730,60.39644,-3.9926,5,2,2014-05-08 22:05:14,1399586714,10.179,31,10.9,0,0,60.426,-3.9822,22,5
129,2014-05-08 23:05:07,1399590307,60.42974,-3.9252,3,2,2014-05-08 23:05:14,1399590314,10.136,31,10.9,0,0,60.4325,-3.9436,3,5
130,2014-05-09 00:05:11,1399593911,60.42974,-3.9252,3,4,2014-05-09 00:05:44,1399593944,10.093,31,10.9,0,0,60.439,-3.9073,3,5
131,2014-05-09 01:05:08,1399597508,60.42974,-3.9252,3,2,2014-05-09 01:05:39,1399597539,10.05,28,10.9,0,0,60.4464,-3.869,3,5
132,2014-05-09 02:05:08,1399601108,60.43394,-3.78025,3,2,2014-05-09 02:05:41,1399601141,10.05,28,10.9,0,0,60.4541,-3.8292,3,4
133,2014-05-09 03:05:12,1399604712,60.43186,-3.85273,2,2,2014-05-09 03:05:12,1399604712,10.007,28,10.9,0,0,60.4614,-3.7893,3,5
134,2014-05-09 04:05:42,1399608342,60.48484,-3.71246,3,2,2014-05-09 04:05:47,1399608347,10.007,28,10.9,0,0,60.4683,-3.7456,36,3
135,2014-05-09 05:05:07,1399611907,60.48685,-3.63987,2,2,2014-05-09 05:05:45,1399611945,10.007,31,10.9,0,0,60.475,-3.7042,3,3
136,2014-05-09 06:05:26,1399615526,60.37643,-8.37645,270,2,2014-05-09 06:05:33,1399615533,10.007,31,10.9,0,0,60.4813,-3.6666,3,5
137,2014-05-09 07:05:07,1399619107,60.43798,-3.63525,5,2,2014-05-09 07:05:14,1399619114,10.007,31,10.9,0,0,60.4873,-3.6316,3,5
138,2014-05-09 08:05:09,1399622709,60.56883,-4.6001,108,2,2014-05-09 08:05:06,1399622706,10.007,31,10.9,0,0,60.4921,-3.6013,3,3
139,2014-05-09 09:05:19,1399626319,60.52,-3.57179,4,2,2014-05-09 09:05:25,1399626325,10.007,27,10.9,0,0,60.4964,-3.577,3,2
140,2014-05-09 10:05:12,1399629912,60.36899,-1.37773,143,2,2014-05-09 10:05:14,1399629914,10.05,27,10.9,0,0,60.5002,-3.5556,3,5
141,2014-05-09 11:05:10,1399633510,60.52193,-3.49908,3,2,2014-05-09 11:05:36,1399633536,10.093,27,10.9,0,0,60.5039,-3.5371,3,5
142,2014-05-09 12:05:10,1399637110,60.45242,-1.01784,151,2,2014-05-09 12:05:07,1399637107,10.093,27,10.9,0,0,60.5073,-3.5202,3,5
143,2014-05-09 13:05:11,1399640711,60.52,-3.57179,2,1,2014-05-09 13:05:14,1399640714,10.179,29,10.9,0,0,60.5115,-3.5026,3,5
144,2014-05-09 14:05:10,1399644310,60.52381,-3.42636,2,2,2014-05-09 14:05:12,1399644312,10.179,29,10.9,0,0,60.5162,-3.4843,3,4
145,2014-05-09 15:05:32,1399647932,60.52381,-3.42636,1,2,2014-05-09 15:05:45,1399647945,10.222,29,10.9,0,0,60.5217,-3.4617,18,5
146,2014-05-09 16:05:12,1399651512,60.35401,2.1775,315,2,2014-05-09 16:05:45,1399651545,10.222,29,10.9,0,0,60.5272,-3.437,3,5
147,2014-05-09 17:05:12,1399655112,60.52381,-3.42636,2,4,2014-05-09 17:05:32,1399655132,10.222,25,10.9,0,0,60.5329,-3.4112,3,5
148,2014-05-09 18:05:12,1399658712,60.52566,-3.35362,2,1,2014-05-09 18:05:09,1399658709,10.265,25,10.9,0,0,60.5382,-3.3864,3,5
149,2014-05-09 19:05:09,1399662309,60.52566,-3.35362,4,1,2014-05-09 19:05:08,1399662308,10.222,25,10.9,0,0,60.5425,-3.3617,3,4
150,2014-05-09 20:05:21,1399665921,60.54332,-3.35362,3,1,2014-05-09 20:05:15,1399665915,10.179,25,10.8,0,0,60.5461,-3.3412,3,5
151,2014-05-09 21:05:13,1399669513,60.52566,-3.35362,13,2,2014-05-09 21:05:12,1399669512,10.179,27,10.9,0,0,60.549,-3.3246,3,5
152,2014-05-09 22:05:17,1399673117,60.52566,-3.35362,2,2,2014-05-09 22:05:44,1399673144,10.179,27,10.9,0,0,60.551,-3.3121,3,5
153,2014-05-09 23:05:50,1399676750,60.54513,-3.28088,2,2,2014-05-09 23:05:10,1399676710,10.136,27,10.9,0,0,60.5531,-3.3044,35,5
154,2014-05-10 00:05:11,1399680311,60.54513,-3.28088,2,2,2014-05-10 00:05:11,1399680311,10.093,27,10.9,0,0,60.5557,-3.2988,3,5
155,2014-05-10 01:05:11,1399683911,60.93212,2.29061,314,2,2014-05-10 01:05:14,1399683914,10.05,29,10.9,0,0,60.5584,-3.2925,3,5
156,2014-05-10 02:05:09,1399687509,60.54332,-3.35362,2,2,2014-05-10 02:05:38,1399687538,10.05,29,10.9,0,0,60.5625,-3.2864,3,5
157,2014-05-10 03:05:11,1399691111,60.57811,-3.21221,2,2,2014-05-10 03:05:03,1399691103,10.007,29,10.8,0,0,60.568,-3.2782,3,3
158,2014-05-10 04:05:07,1399694707,60.57811,-3.21221,2,3,2014-05-10 04:05:15,1399694715,10.007,29,10.8,0,0,60.5742,-3.2654,3,5
159,2014-05-10 05:05:09,1399698309,60.57634,-3.28506,2,2,2014-05-10 05:05:18,1399698318,10.007,25,10.9,0,0,60.5807,-3.2502,3,5
160,2014-05-10 06:05:11,1399701911,60.5469,-3.20813,7,1,2014-05-10 06:05:02,1399701902,10.007,25,10.9,0,0,60.5875,-3.2326,3,5
161,2014-05-10 07:05:13,1399705513,60.62696,-3.2163,4,1,2014-05-10 07:05:02,1399705502,10.007,25,10.9,0,0,60.5931,-3.2139,3,5
162,2014-05-10 08:05:36,1399709136,60.57984,-3.13935,3,2,2014-05-10 08:05:14,1399709114,10.007,25,10.9,0,0,60.5976,-3.1973,20,4
163,2014-05-10 09:05:19,1399712719,60.61108,-3.14335,2,7,2014-05-10 09:05:46,1399712746,10.05,25,10.9,0,0,60.6011,-3.184,3,5
164,2014-05-10 10:05:11,1399716311,60.57811,-3.21221,4,1,2014-05-10 10:05:38,1399716338,10.093,25,10.9,0,0,60.6038,-3.1754,3,5
165,2014-05-10 11:05:07,1399719907,60.62696,-3.2163,2,2,2014-05-10 11:05:04,1399719904,10.136,25,10.8,0,0,60.6063,-3.1717,3,2
166,2014-05-10 12:05:13,1399723513,60.57984,-3.13935,3,1,2014-05-10 12:05:10,1399723510,10.179,25,10.8,0,0,60.6074,-3.1698,3,5
167,2014-05-10 13:06:42,1399727202,60.62696,-3.2163,4,2,2014-05-10 13:05:35,1399727135,10.136,29,10.8,0,0,60.608,-3.1701,94,5
168,2014-05-10 14:05:09,1399730709,60.48724,-0.29121,170,2,2014-05-10 14:05:17,1399730717,10.093,29,10.8,0,0,60.6094,-3.169,3,5
169,2014-05-10 15:05:09,1399734309,60.57984,-3.13935,3,2,2014-05-10 15:05:01,1399734301,10.093,29,10.9,0,0,60.6103,-3.164,3,5
170,2014-05-10 16:05:15,1399737915,60.57984,-3.13935,3,3,2014-05-10 16:05:19,1399737919,10.05,29,10.8,0,0,60.6121,-3.1582,3,5
171,2014-05-10 17:05:09,1399741509,60.57984,-3.13935,4,3,2014-05-10 17:05:43,1399741543,10.007,34,10.8,0,0,60.6144,-3.147,3,5
172,2014-05-10 18:05:20,1399745120,60.57984,-3.13935,10,1,2014-05-10 18:05:12,1399745112,10.007,34,10.8,0,0,60.6164,-3.1364,3,5
173,2014-05-10 19:05:09,1399748709,60.63039,-3.07039,2,1,2014-05-10 19:05:00,1399748700,9.964,34,10.8,0,0,0,0,3,5
174,2014-05-10 20:05:19,1399752319,60.57984,-3.13935,2,2,2014-05-10 20:05:15,1399752315,9.964,34,10.8,0,0,60.6171,-3.1155,3,3
175,2014-05-10 21:05:11,1399755911,60.61278,-3.07039,3,2,2014-05-10 21:05:13,1399755913,9.964,28,10.8,0,0,60.6157,-3.1096,3,5
176,2014-05-10 22:05:10,1399759510,60.63039,-3.07039,1,2,2014-05-10 22:05:11,1399759511,9.964,28,10.8,0,0,60.6137,-3.1089,3,5
177,2014-05-10 23:05:41,1399763141,60.57984,-3.13935,4,2,2014-05-10 23:05:03,1399763103,9.921,28,10.8,0,0,60.6114,-3.1135,34,2
178,2014-05-11 00:05:25,1399766725,60.62869,-3.14335,2,2,2014-05-11 00:05:12,1399766712,9.921,28,10.8,0,0,60.6092,-3.1228,20,5
179,2014-05-11 01:05:12,1399770312,60.82552,0.36775,209,2,2014-05-11 01:05:15,1399770315,9.878,30,10.8,0,0,60.6087,-3.1354,3,3
180,2014-05-11 02:05:12,1399773912,60.62869,-3.14335,2,1,2014-05-11 02:05:42,1399773942,9.878,30,10.8,0,0,60.6099,-3.1482,3,4
181,2014-05-11 03:05:09,1399777509,60.57811,-3.21221,3,2,2014-05-11 03:05:33,1399777533,9.878,30,10.8,0,0,60.6126,-3.1574,3,5
182,2014-05-11 04:05:28,1399781128,60.57984,-3.13935,3,2,2014-05-11 04:05:13,1399781113,9.878,30,10.8,0,0,60.6158,-3.163,22,5
183,2014-05-11 05:05:49,1399784749,60.57811,-3.21221,3,2,2014-05-11 05:05:42,1399784742,9.835,29,10.8,0,0,60.6196,-3.1636,36,5
184,2014-05-11 06:05:19,1399788319,60.6582,-3.22041,10,2,2014-05-11 06:05:02,1399788302,9.835,29,10.8,0,0,60.6239,-3.1621,3,2
185,2014-05-11 07:05:17,1399791917,60.61108,-3.14335,8,2,2014-05-11 07:05:09,1399791909,9.835,29,10.8,0,0,60.629,-3.1602,3,5
186,2014-05-11 08:05:11,1399795511,60.82997,-6.4133,193,2,2014-05-11 08:05:02,1399795502,9.835,29,10.8,0,0,60.6336,-3.1581,3,5
187,2014-05-11 09:05:14,1399799114,60.62869,-3.14335,1,2,2014-05-11 09:05:38,1399799138,9.835,31,10.8,0,0,60.6372,-3.1594,3,5
188,2014-05-11 10:05:20,1399802720,60.80229,-6.33208,191,2,2014-05-11 10:05:44,1399802744,9.835,31,10.8,0,0,60.6403,-3.1654,3,4
189,2014-05-11 11:05:21,1399806321,60.6582,-3.22041,5,1,2014-05-11 11:05:11,1399806311,9.835,31,10.8,0,0,60.6434,-3.1757,3,4
190,2014-05-11 12:05:07,1399809907,60.62518,-3.28924,73,2,2014-05-11 12:05:36,1399809936,9.835,31,10.8,0,0,60.6467,-3.1881,3,5
191,2014-05-11 13:05:23,1399813523,60.65994,-3.14737,3,2,2014-05-11 13:05:37,1399813537,9.835,28,10.8,0,0,60.6503,-3.2025,18,5
192,2014-05-11 14:05:11,1399817111,60.62696,-3.2163,3,1,2014-05-11 14:05:12,1399817112,9.878,28,10.8,0,0,60.6534,-3.2135,3,5
193,2014-05-11 15:05:36,1399820736,60.62696,-3.2163,5,2,2014-05-11 15:05:45,1399820745,9.921,28,10.8,0,0,60.6561,-3.2214,22,3
194,2014-05-11 16:05:10,1399824310,60.65994,-3.14737,3,2,2014-05-11 16:05:07,1399824307,9.964,28,10.8,0,0,60.6607,-3.2221,3,5
195,2014-05-11 17:05:09,1399827909,60.65994,-3.14737,2,2,2014-05-11 17:05:29,1399827929,9.964,32,10.8,0,0,60.6655,-3.2159,3,4
196,2014-05-11 18:05:10,1399831510,60.56616,0.65687,223,2,2014-05-11 18:05:07,1399831507,10.007,32,10.8,0,0,60.6701,-3.2032,3,3
197,2014-05-11 19:05:11,1399835111,60.70703,-3.22452,9,2,2014-05-11 19:05:43,1399835143,9.964,32,10.8,0,0,60.6738,-3.1908,3,2
198,2014-05-11 20:05:20,1399838720,60.65994,-3.14737,2,1,2014-05-11 20:05:12,1399838712,9.921,32,10.8,0,0,60.6767,-3.1778,3,3
199,2014-05-11 21:05:11,1399842311,60.71047,-3.07824,68,2,2014-05-11 21:05:15,1399842315,9.921,33,10.8,0,0,60.6796,-3.1652,3,5
200,2014-05-11 22:05:08,1399845908,60.65994,-3.14737,5,2,2014-05-11 22:05:09,1399845909,9.878,33,10.8,0,0,60.682,-3.1568,3,5
201,2014-05-11 23:05:09,1399849509,60.6582,-3.22041,4,1,2014-05-11 23:05:38,1399849538,9.878,33,10.8,0,0,60.6844,-3.1502,3,5
202,2014-05-12 00:05:22,1399853122,60.65994,-3.14737,3,1,2014-05-12 00:05:39,1399853139,9.878,33,10.8,0,0,60.686,-3.1471,3,5
203,2014-05-12 01:05:17,1399856717,60.65994,-3.14737,3,2,2014-05-12 01:05:09,1399856709,9.878,32,10.8,0,0,60.6876,-3.1448,3,3
204,2014-05-12 02:05:09,1399860309,60.65994,-3.14737,2,2,2014-05-12 02:05:44,1399860344,9.878,32,10.8,0,0,60.6887,-3.1446,3,4
205,2014-05-12 03:05:17,1399863917,60.6582,-3.22041,4,5,2014-05-12 03:05:48,1399863948,9.835,32,10.8,0,0,60.6907,-3.1448,3,5
206,2014-05-12 04:05:34,1399867534,60.6582,-3.22041,11,2,2014-05-12 04:05:32,1399867532,9.835,32,10.8,0,0,60.6942,-3.1419,18,5
207,2014-05-12 05:05:26,1399871126,60.71047,-3.07824,2,2,2014-05-12 05:05:39,1399871139,9.835,26,10.8,0,0,60.6996,-3.1343,20,5
208,2014-05-12 06:05:12,1399874712,60.71047,-3.07824,2,2,2014-05-12 06:05:05,1399874705,9.878,26,10.8,0,0,60.7054,-3.1222,3,5
209,2014-05-12 07:05:08,1399878308,60.70877,-3.15139,2,1,2014-05-12 07:05:30,1399878330,9.878,26,10.8,0,0,60.7116,-3.1057,3,5
210,2014-05-12 08:05:10,1399881910,61.04747,-8.77997,319,2,2014-05-12 08:05:26,1399881926,9.878,26,10.8,0,0,60.7169,-3.0899,3,5
212,2014-05-12 10:05:09,1399889109,60.85841,-5.45429,147,2,2014-05-12 10:05:12,1399889112,9.921,29,10.8,0,0,60.7256,-3.0689,3,5
213,2014-05-12 11:05:10,1399892710,60.74341,-3.00893,3,1,2014-05-12 11:05:09,1399892709,9.964,29,10.8,0,0,60.73,-3.0658,3,4
214,2014-05-12 12:05:47,1399896347,60.87001,-5.1611,133,2,2014-05-12 12:05:42,1399896342,10.007,29,10.8,0,0,60.7337,-3.0672,36,5
215,2014-05-12 13:05:12,1399899912,60.74004,-3.15542,2,3,2014-05-12 13:05:32,1399899932,10.007,31,10.8,0,0,60.737,-3.0734,3,5
216,2014-05-12 14:06:45,1399903605,60.85237,-4.78808,132,2,2014-05-12 14:05:57,1399903557,10.007,31,10.8,0,0,60.7407,-3.0797,98,5
217,2014-05-12 15:05:13,1399907113,60.71047,-3.07824,1,1,2014-05-12 15:05:38,1399907138,10.007,31,10.8,0,0,60.7448,-3.085,3,5
218,2014-05-12 16:05:10,1399910710,60.69991,-1.97746,89,2,2014-05-12 16:05:41,1399910741,10.007,31,10.8,0,0,60.7498,-3.0869,3,5